GW2765 Weather Reports


Display with metric or nautical units.
time (UTC)temp
F
wind
direction
speed
MPH
gust
MPH
rain 1hr
in
rain 24hr
in
rain mn
in
humidity
%
barometer
mb
20260901015557 98 243 8.0 23.0 0.00 0.00 0.00 22 1007.4
20260901014829 99 257 7.0 17.0 0.00 0.00 0.00 22 1007.3
20260901014329 99 244 8.0 18.0 0.00 0.00 0.00 21 1007.2
20260901013830 100 205 9.0 19.0 0.00 0.00 0.00 21 1007.2
20260901013328 100 278 11.0 19.0 0.00 0.00 0.00 21 1007.0
20260901012829 100 256 10.0 22.0 0.00 0.00 0.00 21 1007.0
20260901012553 101 321 9.0 22.0 0.00 0.00 0.00 21 1006.9
20260901011830 101 259 7.0 16.0 0.00 0.00 0.00 20 1007.0
20260901011329 102 243 6.0 14.0 0.00 0.00 0.00 20 1007.1
20260901010833 102 274 6.0 14.0 0.00 0.00 0.00 20 1007.2
20260901010547 103 247 7.0 15.0 0.00 0.00 0.00 19 1007.2
20260901005830 103 239 7.0 15.0 0.00 0.00 0.00 19 1007.2
20260901005330 104 243 5.0 13.0 0.00 0.00 0.00 19 1007.3
20260901004829 104 212 3.0 11.0 0.00 0.00 0.00 19 1007.3
20260901004551 104 231 2.0 8.0 0.00 0.00 0.00 19 1007.2
20260901003829 104 295 2.0 8.0 0.00 0.00 0.00 19 1007.1
20260901002829 103 11 3.0 9.0 0.00 0.00 0.00 21 1007.2
20260901002330 103 72 3.0 9.0 0.00 0.00 0.00 19 1007.2
20260901001829 103 331 4.0 9.0 0.00 0.00 0.00 20 1007.4
20260901001330 103 330 5.0 9.0 0.00 0.00 0.00 20 1007.2
20260901000829 104 333 3.0 9.0 0.00 0.00 0.00 20 1007.2
20260831235829 106 8 1.0 4.0 0.00 0.00 0.00 20 1007.4
20260831235600 106 258 1.0 4.0 0.00 0.00 0.00 19 1007.4
20260831234829 105 195 1.0 2.0 0.00 0.00 0.00 20 1007.5
20260831234330 104 194 1.0 5.0 0.00 0.00 0.00 20 1007.5
20260831233830 104 337 1.0 5.0 0.00 0.00 0.00 20 1007.5
20260831233559 104 51 2.0 5.0 0.00 0.00 0.00 21 1007.5
20260831232832 104 69 2.0 5.0 0.00 0.00 0.00 20 1007.5
20260831232331 105 52 1.0 5.0 0.00 0.00 0.00 20 1007.6
20260831231830 105 77 1.0 5.0 0.00 0.00 0.00 21 1007.6
20260831231331 104 147 2.0 5.0 0.00 0.00 0.00 21 1007.6
20260831230833 105 75 2.0 6.0 0.00 0.00 0.00 21 1007.6
20260831230330 104 62 2.0 9.0 0.00 0.00 0.00 21 1007.7
20260831225831 105 49 2.0 9.0 0.00 0.00 0.00 21 1007.7
20260831225331 104 150 2.0 6.0 0.00 0.00 0.00 21 1007.7
20260831224831 104 298 2.0 5.0 0.00 0.00 0.00 21 1007.8
20260831224330 104 32 2.0 5.0 0.00 0.00 0.00 21 1007.9
20260831223830 105 36 2.0 5.0 0.00 0.00 0.00 20 1008.0
20260831223331 105 83 1.0 5.0 0.00 0.00 0.00 20 1008.0
20260831222830 105 58 1.0 3.0 0.00 0.00 0.00 20 1008.2
20260831222331 105 72 1.0 4.0 0.00 0.00 0.00 20 1008.2
20260831221831 105 349 1.0 5.0 0.00 0.00 0.00 20 1008.2
20260831220831 104 342 2.0 5.0 0.00 0.00 0.00 20 1008.4
20260831220332 104 0 2.0 5.0 0.00 0.00 0.00 21 1008.4
20260831215330 105 89 2.0 7.0 0.00 0.00 0.00 20 1008.6
20260831215057 104 219 2.0 6.0 0.00 0.00 0.00 20 1008.6
20260831214321 104 77 1.0 6.0 0.00 0.00 0.00 21 1008.7
20260831213814 104 33 1.0 6.0 0.00 0.00 0.00 21 1008.7
20260831213311 104 336 1.0 6.0 0.00 0.00 0.00 22 1008.8
20260831213040 104 109 1.0 4.0 0.00 0.00 0.00 21 1008.9
20260831212313 103 266 1.0 5.0 0.00 0.00 0.00 21 1008.9
20260831211808 103 79 2.0 8.0 0.00 0.00 0.00 21 1009.0
20260831211309 102 51 3.0 8.0 0.00 0.00 0.00 21 1009.0
20260831210809 103 50 2.0 6.0 0.00 0.00 0.00 22 1009.1
20260831210307 103 342 2.0 6.0 0.00 0.00 0.00 21 1009.3
20260831205807 103 44 2.0 5.0 0.00 0.00 0.00 22 1009.3
20260831205307 102 20 2.0 5.0 0.00 0.00 0.00 21 1009.4
20260831205034 103 34 2.0 6.0 0.00 0.00 0.00 21 1009.4
20260831204308 103 48 2.0 6.0 0.00 0.00 0.00 22 1009.3
20260831204035 103 60 1.0 5.0 0.00 0.00 0.00 21 1009.5
20260831203534 103 90 1.0 5.0 0.00 0.00 0.00 20 1009.5
20260831202806 103 122 2.0 5.0 0.00 0.00 0.00 20 1009.7
20260831202302 103 62 2.0 6.0 0.00 0.00 0.00 20 1009.8
20260831201802 103 82 2.0 6.0 0.00 0.00 0.00 21 1009.9
20260831201303 102 109 3.0 7.0 0.00 0.00 0.00 20 1010.0
20260831200801 101 59 3.0 7.0 0.00 0.00 0.00 20 1010.1
20260831200302 102 53 3.0 7.0 0.00 0.00 0.00 20 1010.0
20260831195802 102 29 2.0 6.0 0.00 0.00 0.00 20 1010.1
20260831195029 102 72 2.0 5.0 0.00 0.00 0.00 20 1010.2
20260831194301 101 295 2.0 7.0 0.00 0.00 0.00 19 1010.2
20260831193758 101 171 2.0 7.0 0.00 0.00 0.00 20 1010.2
20260831193254 101 226 2.0 7.0 0.00 0.00 0.00 20 1010.3
20260831192747 101 235 2.0 7.0 0.00 0.00 0.00 20 1010.2
20260831192241 101 113 3.0 9.0 0.00 0.00 0.00 20 1010.3
20260831191735 101 57 2.0 9.0 0.00 0.00 0.00 20 1010.4
20260831191233 100 133 2.0 5.0 0.00 0.00 0.00 20 1010.4
20260831190730 100 112 3.0 8.0 0.00 0.00 0.00 20 1010.6
20260831190230 101 80 3.0 10.0 0.00 0.00 0.00 19 1010.7
20260831185955 100 98 3.0 10.0 0.00 0.00 0.00 20 1010.7
20260831185231 100 340 3.0 7.0 0.00 0.00 0.00 21 1010.7
20260831184730 100 122 3.0 7.0 0.00 0.00 0.00 20 1010.7
20260831184229 100 200 3.0 9.0 0.00 0.00 0.00 20 1010.7
20260831183731 99 73 4.0 9.0 0.00 0.00 0.00 20 1010.7
20260831183230 99 67 3.0 8.0 0.00 0.00 0.00 20 1010.8
20260831182729 99 89 3.0 8.0 0.00 0.00 0.00 20 1010.8
20260831182230 99 97 3.0 7.0 0.00 0.00 0.00 21 1010.8
20260831181730 99 115 3.0 9.0 0.00 0.00 0.00 21 1010.8
20260831181458 98 139 1.0 9.0 0.00 0.00 0.00 21 1010.8
20260831180729 99 61 1.0 4.0 0.00 0.00 0.00 22 1010.8
20260831180459 98 157 2.0 4.0 0.00 0.00 0.00 23 1010.8
20260831175729 97 70 2.0 6.0 0.00 0.00 0.00 22 1010.9
20260831175229 97 40 1.0 6.0 0.00 0.00 0.00 22 1010.8
20260831174734 97 61 2.0 5.0 0.00 0.00 0.00 23 1011.0
20260831173729 97 339 1.0 6.0 0.00 0.00 0.00 22 1010.9
20260831173229 97 44 1.0 4.0 0.00 0.00 0.00 22 1010.9
20260831172732 97 24 1.0 3.0 0.00 0.00 0.00 23 1011.0
20260831172231 96 63 1.0 3.0 0.00 0.00 0.00 22 1011.0
20260831171730 96 84 1.0 4.0 0.00 0.00 0.00 23 1011.1
20260831171231 96 47 1.0 4.0 0.00 0.00 0.00 23 1011.2
20260831170732 96 129 1.0 4.0 0.00 0.00 0.00 22 1011.0
20260831170229 96 112 1.0 3.0 0.00 0.00 0.00 24 1011.0
20260831165729 95 237 1.0 4.0 0.00 0.00 0.00 23 1010.9
20260831165230 95 106 0.0 4.0 0.00 0.00 0.00 23 1011.0
20260831164730 95 62 0.0 4.0 0.00 0.00 0.00 26 1010.9
20260831164229 94 58 1.0 4.0 0.00 0.00 0.00 24 1011.0
20260831163730 94 110 0.0 2.0 0.00 0.00 0.00 26 1010.9
20260831163230 94 53 0.0 3.0 0.00 0.00 0.00 26 1010.9
20260831162728 94 129 0.0 3.0 0.00 0.00 0.00 24 1011.0
20260831162459 93 125 0.0 2.0 0.00 0.00 0.00 27 1011.0
20260831162002 92 6 0.0 3.0 0.00 0.00 0.00 29 1010.9
20260831161229 92 71 0.0 3.0 0.00 0.00 0.00 28 1010.8
20260831160730 92 46 0.0 2.0 0.00 0.00 0.00 30 1010.9
20260831160455 91 71 0.0 1.0 0.00 0.00 0.00 30 1010.8
20260831155729 91 34 0.0 2.0 0.00 0.00 0.00 30 1010.8
20260831155229 91 113 0.0 2.0 0.00 0.00 0.00 32 1010.8
20260831154730 91 155 1.0 2.0 0.00 0.00 0.00 33 1010.7
20260831154511 90 203 1.0 3.0 0.00 0.00 0.00 34 1010.7
20260831153959 89 124 1.0 3.0 0.00 0.00 0.00 36 1010.6
20260831153231 89 218 1.0 3.0 0.00 0.00 0.00 38 1010.6
20260831152730 89 136 0.0 2.0 0.00 0.00 0.00 40 1010.6
20260831152457 87 225 1.0 3.0 0.00 0.00 0.00 41 1010.5
20260831151731 87 136 1.0 4.0 0.00 0.00 0.00 41 1010.6
20260831151230 87 131 1.0 4.0 0.00 0.00 0.00 42 1010.6
20260831151004 86 104 0.0 2.0 0.00 0.00 0.00 43 1010.5
20260831150456 85 108 0.0 2.0 0.00 0.00 0.00 44 1010.7
20260831145738 85 124 0.0 0.0 0.00 0.00 0.00 43 1010.5
20260831145229 85 146 0.0 0.0 0.00 0.00 0.00 45 1010.5
20260831144730 85 146 0.0 0.0 0.00 0.00 0.00 44 1010.5
20260831144231 84 131 0.0 0.0 0.00 0.00 0.00 45 1010.4
20260831143729 83 131 0.0 0.0 0.00 0.00 0.00 47 1010.3
20260831143229 83 204 0.0 0.0 0.00 0.00 0.00 47 1010.3
20260831142729 83 204 0.0 0.0 0.00 0.00 0.00 47 1010.2
20260831142229 82 204 0.0 0.0 0.00 0.00 0.00 49 1010.2
20260831141730 82 204 0.0 0.0 0.00 0.00 0.00 50 1010.1
20260831141454 81 204 0.0 0.0 0.00 0.00 0.00 50 1010.1
20260831140955 82 203 0.0 0.0 0.00 0.00 0.00 49 1010.0
20260831140229 81 204 0.0 0.0 0.00 0.00 0.00 48 1009.9
20260831135729 80 205 0.0 0.0 0.00 0.00 0.00 48 1009.8
20260831135229 80 204 0.0 0.0 0.00 0.00 0.00 48 1009.7
20260831134730 80 204 0.0 0.0 0.00 0.00 0.00 49 1009.5
20260831134229 80 205 0.0 1.0 0.00 0.00 0.00 48 1009.5
20260831133724 80 205 0.0 1.0 0.00 0.00 0.00 48 1009.5
20260831133447 80 204 0.0 1.0 0.00 0.00 0.00 48 1009.3
20260831132714 80 155 1.0 3.0 0.00 0.00 0.00 47 1009.4
20260831132443 80 155 1.0 3.0 0.00 0.00 0.00 47 1009.3
20260831131941 80 186 0.0 2.0 0.00 0.00 0.00 47 1009.3
20260831131442 80 179 0.0 1.0 0.00 0.00 0.00 47 1009.3
20260831130939 80 147 0.0 1.0 0.00 0.00 0.00 47 1009.3
20260831130212 80 166 0.0 1.0 0.00 0.00 0.00 47 1009.5
20260831125942 80 203 1.0 3.0 0.00 0.00 0.00 48 1009.4
20260831125212 80 107 1.0 3.0 0.00 0.00 0.00 48 1009.5
20260831124713 80 230 0.0 3.0 0.00 0.00 0.00 48 1009.2
20260831124210 80 180 0.0 1.0 0.00 0.00 0.00 48 1009.0
20260831123707 80 120 0.0 2.0 0.00 0.00 0.00 48 1009.0
20260831123207 80 160 1.0 2.0 0.00 0.00 0.00 49 1009.0
20260831122936 80 198 0.0 2.0 0.00 0.00 0.00 49 1008.9
20260831122205 80 133 0.0 1.0 0.00 0.00 0.00 48 1008.8
20260831121930 79 133 0.0 1.0 0.00 0.00 0.00 49 1008.8
20260831121203 80 184 0.0 1.0 0.00 0.00 0.00 49 1008.8
20260831120704 79 242 0.0 1.0 0.00 0.00 0.00 49 1008.7
20260831120204 80 243 0.0 1.0 0.00 0.00 0.00 48 1008.6
20260831115703 80 242 0.0 1.0 0.00 0.00 0.00 48 1008.7
20260831115201 80 244 0.0 1.0 0.00 0.00 0.00 48 1008.6
20260831114701 80 244 0.0 1.0 0.00 0.00 0.00 48 1008.6
20260831114202 80 142 0.0 1.0 0.00 0.00 0.00 47 1008.6
20260831113701 81 143 0.0 0.0 0.00 0.00 0.00 46 1008.5
20260831113202 81 143 0.0 1.0 0.00 0.00 0.00 47 1008.6
20260831112702 82 143 0.0 1.0 0.00 0.00 0.00 46 1008.6
20260831112201 82 161 0.0 0.0 0.00 0.00 0.00 45 1008.6
20260831111701 82 164 0.0 2.0 0.00 0.00 0.00 45 1008.6
20260831111202 82 160 1.0 2.0 0.00 0.00 0.00 45 1008.5
20260831110703 82 215 0.0 2.0 0.00 0.00 0.00 45 1008.5
20260831110203 82 181 0.0 2.0 0.00 0.00 0.00 45 1008.5
20260831105704 82 189 1.0 4.0 0.00 0.00 0.00 45 1008.5
20260831105202 82 218 1.0 4.0 0.00 0.00 0.00 45 1008.5
20260831104703 82 203 1.0 3.0 0.00 0.00 0.00 46 1008.6
20260831104202 82 217 1.0 3.0 0.00 0.00 0.00 46 1008.6
20260831103204 83 191 1.0 3.0 0.00 0.00 0.00 46 1008.5
20260831102702 83 211 1.0 3.0 0.00 0.00 0.00 44 1008.5
20260831102203 83 83 0.0 1.0 0.00 0.00 0.00 43 1008.4
20260831101701 83 83 0.0 1.0 0.00 0.00 0.00 43 1008.4
20260831100704 83 156 1.0 4.0 0.00 0.00 0.00 44 1008.4
20260831100428 83 168 0.0 4.0 0.00 0.00 0.00 43 1008.4
20260831095702 83 185 0.0 1.0 0.00 0.00 0.00 44 1008.3
20260831095201 83 185 0.0 2.0 0.00 0.00 0.00 43 1008.4
20260831094701 84 146 0.0 2.0 0.00 0.00 0.00 43 1008.4
20260831094201 84 333 0.0 1.0 0.00 0.00 0.00 42 1008.4
20260831093928 84 333 0.0 2.0 0.00 0.00 0.00 41 1008.4
20260831093428 85 333 0.0 2.0 0.00 0.00 0.00 41 1008.4
20260831092701 85 216 0.0 1.0 0.00 0.00 0.00 41 1008.4
20260831092201 85 216 0.0 2.0 0.00 0.00 0.00 41 1008.3
20260831091201 85 170 0.0 1.0 0.00 0.00 0.00 40 1008.3
20260831090700 85 256 0.0 1.0 0.00 0.00 0.00 40 1008.3
20260831090203 85 300 0.0 1.0 0.00 0.00 0.00 40 1008.2
20260831085926 85 300 0.0 1.0 0.00 0.00 0.00 40 1008.3
20260831085201 85 248 0.0 2.0 0.00 0.00 0.00 40 1008.4
20260831084701 85 346 0.0 2.0 0.00 0.00 0.00 40 1008.4
20260831084202 85 172 0.0 1.0 0.00 0.00 0.00 40 1008.4
20260831083702 85 172 0.0 1.0 0.00 0.00 0.00 40 1008.4
20260831083425 85 169 0.0 1.0 0.00 0.00 0.00 40 1008.4
20260831082702 85 169 0.0 2.0 0.00 0.00 0.00 40 1008.4
20260831082202 86 153 0.0 2.0 0.00 0.00 0.00 39 1008.5
20260831081701 86 129 0.0 1.0 0.00 0.00 0.00 39 1008.5
20260831081426 86 229 0.0 1.0 0.00 0.00 0.00 38 1008.4
20260831080700 86 229 0.0 2.0 0.00 0.00 0.00 39 1008.5
20260831080200 86 229 0.0 2.0 0.00 0.00 0.00 37 1008.7
20260831075930 86 346 0.0 0.0 0.00 0.00 0.00 37 1008.4
20260831075431 87 168 0.0 0.0 0.00 0.00 0.00 37 1008.5
20260831074928 87 168 0.0 0.0 0.00 0.00 0.00 37 1008.5
20260831074426 86 169 0.0 0.0 0.00 0.00 0.00 37 1008.6
20260831073703 87 170 0.0 1.0 0.00 0.00 0.00 37 1008.6
20260831072702 87 200 0.0 1.0 0.00 0.00 0.00 37 1008.5
20260831072202 88 41 0.0 1.0 0.00 0.00 0.00 36 1008.3
20260831071703 88 185 0.0 1.0 0.00 0.00 0.00 35 1008.4
20260831071202 88 245 0.0 1.0 0.00 0.00 0.00 35 1008.5
20260831070703 88 352 0.0 1.0 0.00 0.00 0.00 34 1008.4
20260831070202 88 352 0.0 1.0 0.00 0.00 0.00 34 1008.4
20260831065703 88 333 0.0 2.0 0.00 0.00 0.00 34 1008.4
20260831065428 89 10 0.0 3.0 0.00 0.00 0.00 34 1008.4
20260831065415 89 333 0.0 2.0 0.00 0.00 0.00 34 1008.6
20260831064424 89 323 1.0 5.0 0.00 0.00 0.00 33 1008.4
20260831063702 89 330 0.0 5.0 0.00 0.00 0.00 33 1008.4
20260831063203 89 18 0.0 1.0 0.00 0.00 0.00 34 1008.3
20260831062930 89 49 0.0 0.0 0.00 0.00 0.00 33 1008.3
20260831062203 89 304 0.0 0.0 0.00 0.00 0.00 33 1008.4
20260831061702 89 304 0.0 2.0 0.00 0.00 0.00 33 1008.3
20260831061204 90 304 0.0 3.0 0.00 0.00 0.00 33 1008.4
20260831060702 90 300 0.0 3.0 0.00 0.00 0.00 33 1008.3
20260831060201 90 29 0.0 2.0 0.00 0.00 0.00 33 1008.4
20260831055927 90 243 0.0 2.0 0.00 0.00 0.00 32 1008.4
20260831055201 90 38 0.0 0.0 0.00 0.00 0.00 32 1008.4
20260831054701 91 39 0.0 1.0 0.00 0.00 0.00 32 1008.3
20260831054201 91 73 0.0 1.0 0.00 0.00 0.00 32 1008.3
20260831053701 91 74 0.0 2.0 0.00 0.00 0.00 32 1008.3
20260831053427 92 51 0.0 3.0 0.00 0.00 0.00 31 1008.2
20260831052701 92 335 1.0 3.0 0.00 0.00 0.00 31 1008.3
20260831052202 92 305 0.0 3.0 0.00 0.00 0.00 31 1008.2
20260831051701 92 318 0.0 3.0 0.00 0.00 0.00 31 1008.3
20260831051202 92 297 0.0 3.0 0.00 0.00 0.00 31 1008.2
20260831050934 93 238 0.0 1.0 0.00 0.00 0.00 32 1008.3
20260831050202 93 237 0.0 3.0 0.00 0.00 0.00 31 1008.2
20260831045701 93 331 0.0 3.0 0.00 0.00 0.00 31 1008.2
20260831045428 93 295 0.0 2.0 0.00 0.00 0.00 32 1008.2
20260831044703 94 123 0.0 2.0 0.00 0.00 0.00 29 1008.2
20260831044155 94 13 0.0 3.0 0.00 0.00 0.00 29 1008.1
20260831043413 94 36 0.0 1.0 0.00 0.00 0.00 27 1008.0
20260831042907 95 346 0.0 1.0 0.00 0.00 0.00 24 1007.9
20260831042130 94 2 0.0 1.0 0.00 0.00 0.00 27 1007.9
20260831041630 95 11 0.0 1.0 0.00 0.00 0.00 28 1007.8
20260831041130 96 83 0.0 1.0 0.00 0.00 0.00 27 1007.8
20260831040630 96 83 0.0 1.0 0.00 0.00 0.00 26 1007.7
20260831040129 95 83 0.0 1.0 0.00 0.00 0.00 27 1007.6
20260831035629 96 3 0.0 2.0 0.00 0.00 0.00 29 1007.5
20260831035129 96 72 1.0 3.0 0.00 0.00 0.00 27 1007.5
20260831034629 96 84 1.0 3.0 0.00 0.00 0.00 28 1007.2
20260831034129 96 70 0.0 2.0 0.00 0.00 0.00 27 1007.3
20260831033855 96 63 0.0 2.0 0.00 0.00 0.00 28 1007.2
20260831033129 97 32 1.0 4.0 0.00 0.00 0.00 28 1007.1
20260831032630 97 49 1.0 4.0 0.00 0.00 0.00 28 1007.0
20260831032129 97 320 1.0 4.0 0.00 0.00 0.00 28 1006.9
20260831031850 98 351 0.0 4.0 0.00 0.00 0.00 27 1006.9
20260831031355 98 36 1.0 4.0 0.00 0.00 0.00 24 1006.8
20260831030629 99 311 2.0 6.0 0.00 0.00 0.00 24 1006.8
20260831030129 99 266 1.0 9.0 0.00 0.00 0.00 23 1006.7
20260831025625 99 210 1.0 9.0 0.00 0.00 0.00 23 1006.7
20260831025118 99 6 1.0 4.0 0.00 0.00 0.00 23 1006.6
20260831024838 99 52 1.0 4.0 0.00 0.00 0.00 24 1006.6
20260831024341 100 356 1.0 4.0 0.00 0.00 0.00 24 1006.4
20260831023613 100 181 1.0 5.0 0.00 0.00 0.00 23 1006.3
20260831023341 100 277 1.0 5.0 0.00 0.00 0.00 24 1006.3
20260831022611 101 322 2.0 6.0 0.00 0.00 0.00 22 1006.2
20260831022111 101 333 4.0 10.0 0.00 0.00 0.00 22 1006.2
20260831021837 101 255 6.0 14.0 0.00 0.00 0.00 22 1006.1
20260831021111 102 240 6.0 14.0 0.00 0.00 0.00 22 1006.1
20260831020611 102 259 6.0 14.0 0.00 0.00 0.00 22 1006.0
20260831020111 102 257 6.0 13.0 0.00 0.00 0.00 22 1006.0
20260831015834 102 255 5.0 12.0 0.00 0.00 0.00 22 1005.9